Weather History for Les Eplatures, Switzerland

Change the Weather History Date:

Monday, November 11, 2013

  Actual Average Record
Temperature  
Mean Temperature 34 °F -  
Max Temperature 37 °F - - ()
Min Temperature 30 °F - - ()
Degree Days  
Heating Degree Days 32    
Moisture  
Dew Point 28 °F    
Average Humidity 84    
Maximum Humidity 100    
Minimum Humidity 70    
Precipitation  
Precipitation 0.00 in - - ()
Sea Level Pressure  
Sea Level Pressure 30.26 in    
Wind  
Wind Speed 8 mph ()    
Max Wind Speed 15 mph    
Max Gust Speed -    
Visibility 6.1 miles    
Events Snow    
T = Trace of Precipitation, MM = Missing Value Source: Averaged Metar Reports

Daily Weather History Graph

Daily Weather History Graph

Search for Another Location

Airport:

Trip Planner

Search our weather history database for the weather conditions in past years. The results will help you decide how hot, cold, wet, or windy it might be!

Date:

Astronomy

Nov. 11, 2013 Rise Set
Actual Time 7:30 AM CET 5:02 PM CET
Civil Twilight 6:57 AM CET 5:35 PM CET
Nautical Twilight 6:20 AM CET 6:12 PM CET
Astronomical Twilight 5:45 AM CET 6:47 PM CET
Moon 1:56 PM CET (11/11) 12:33 AM CET (11/11)
Length of Visible Light 10h 37m
Length of Day
9h 32m
Waxing Gibbous, 63% of the Moon is Illuminated
Nov 11
Waxing Gibbous
Nov 17
Full
Nov 25
Last Quarter
Dec 3
New
Dec 9
First Quarter

Hourly Weather History & Observations

Time (CET) Temp. Windchill Dew Point Humidity Pressure Visibility Wind Dir Wind Speed Gust Speed Precip Events Conditions
12:20 AM 32.0 °F 26.4 °F 30.2 °F 93% 30.15 in 6.2 mi North 5.8 mph - N/A Snow Light Snow
12:50 AM 32.0 °F 26.4 °F 28.4 °F 87% 30.18 in 6.2 mi NE 5.8 mph - N/A   Scattered Clouds
1:20 AM 30.2 °F 23.4 °F 28.4 °F 93% 30.18 in 6.2 mi North 6.9 mph - N/A   Mostly Cloudy
1:50 AM 30.2 °F 25.4 °F 28.4 °F 93% 30.18 in 6.2 mi NNE 4.6 mph - N/A   Mostly Cloudy
2:20 AM 30.2 °F 24.3 °F 28.4 °F 93% 30.21 in 6.2 mi North 5.8 mph - N/A   Mostly Cloudy
2:50 AM 30.2 °F 25.4 °F 28.4 °F 93% 30.21 in 6.2 mi North 4.6 mph - N/A   Mostly Cloudy
3:20 AM 30.2 °F - 28.4 °F 93% 30.21 in 6.2 mi Variable 2.3 mph - N/A   Mostly Cloudy
3:50 AM 30.2 °F 24.3 °F 30.2 °F 100% 30.21 in 1.6 mi Variable 5.8 mph - N/A Snow Light Snow
4:20 AM 32.0 °F 26.4 °F 28.4 °F 87% 30.21 in 6.2 mi NE 5.8 mph - N/A   Scattered Clouds
4:50 AM 32.0 °F 25.6 °F 28.4 °F 87% 30.24 in 6.2 mi NE 6.9 mph - N/A   Mostly Cloudy
5:20 AM 30.2 °F 21.9 °F 28.4 °F 93% 30.24 in 6.2 mi NE 9.2 mph - N/A   Scattered Clouds
5:50 AM 32.0 °F 24.2 °F 28.4 °F 87% 30.24 in 6.2 mi NE 9.2 mph - N/A Snow Light Snow
6:20 AM 32.0 °F 24.2 °F 28.4 °F 87% 30.24 in 6.2 mi NE 9.2 mph - N/A   Mostly Cloudy
6:50 AM 32.0 °F 23.6 °F 28.4 °F 87% 30.24 in 6.2 mi NE 10.4 mph - N/A   Mostly Cloudy
7:20 AM 32.0 °F 24.8 °F 28.4 °F 87% 30.24 in 6.2 mi NE 8.1 mph - N/A   Mostly Cloudy
7:50 AM 32.0 °F 23.6 °F 26.6 °F 80% 30.27 in 6.2 mi ENE 10.4 mph - N/A   Mostly Cloudy
8:20 AM 32.0 °F 23.6 °F 26.6 °F 80% 30.27 in 6.2 mi NE 10.4 mph - N/A   Partly Cloudy
8:50 AM 32.0 °F 23.6 °F 26.6 °F 80% 30.27 in 6.2 mi NE 10.4 mph - N/A   Scattered Clouds
9:20 AM 32.0 °F 23.6 °F 26.6 °F 80% 30.27 in 6.2 mi NE 10.4 mph - N/A   Scattered Clouds
9:50 AM 33.8 °F 27.7 °F 28.4 °F 81% 30.30 in 6.2 mi ENE 6.9 mph - N/A   Scattered Clouds
10:20 AM 33.8 °F 25.8 °F 28.4 °F 81% 30.30 in 6.2 mi ENE 10.4 mph - N/A   Mostly Cloudy
10:50 AM 35.6 °F 27.5 °F 28.4 °F 75% 30.30 in 6.2 mi ENE 11.5 mph - N/A   Mostly Cloudy
11:20 AM 35.6 °F 27.5 °F 30.2 °F 81% 30.30 in 6.2 mi ENE 11.5 mph - N/A   Mostly Cloudy
11:50 AM 33.8 °F 25.3 °F 30.2 °F 87% 30.30 in 6.2 mi ENE 11.5 mph - N/A   Scattered Clouds
12:20 PM 35.6 °F 27.5 °F 28.4 °F 75% 30.30 in 6.2 mi ENE 11.5 mph - N/A   Scattered Clouds
12:50 PM 35.6 °F 27.1 °F 28.4 °F 75% 30.30 in 6.2 mi ENE 12.7 mph - N/A   Scattered Clouds
1:20 PM 37.4 °F 30.3 °F 30.2 °F 75% 30.30 in 6.2 mi ENE 10.4 mph - N/A   Mostly Cloudy
1:50 PM 37.4 °F 29.3 °F 30.2 °F 75% 30.30 in 6.2 mi NE 12.7 mph - N/A   Mostly Cloudy
2:20 PM 35.6 °F 27.1 °F 30.2 °F 81% 30.30 in 6.2 mi NE 12.7 mph - N/A   Scattered Clouds
2:50 PM 37.4 °F 30.3 °F 28.4 °F 70% 30.30 in 6.2 mi ENE 10.4 mph - N/A   Partly Cloudy
3:20 PM 37.4 °F 30.3 °F 30.2 °F 75% 30.30 in 6.2 mi ENE 10.4 mph - N/A   Partly Cloudy
3:50 PM 35.6 °F 26.6 °F 28.4 °F 75% 30.30 in 6.2 mi ENE 13.8 mph - N/A   Partly Cloudy
4:20 PM 35.6 °F 26.6 °F 28.4 °F 75% 30.30 in 6.2 mi NE 13.8 mph - N/A   Partly Cloudy
4:50 PM 33.8 °F 24.8 °F 28.4 °F 81% 30.30 in 6.2 mi NE 12.7 mph - N/A   Partly Cloudy
5:20 PM 33.8 °F 26.4 °F 28.4 °F 81% 30.30 in - NE 9.2 mph - N/A   Clear
5:50 PM 32.0 °F 24.8 °F 28.4 °F 87% 30.30 in - NNE 8.1 mph - N/A   Clear
6:20 PM 32.0 °F 25.6 °F 28.4 °F 87% 30.30 in - NE 6.9 mph - N/A   Clear
6:50 PM 32.0 °F 24.2 °F 28.4 °F 87% 30.30 in 6.2 mi NE 9.2 mph - N/A   Partly Cloudy
7:20 PM 32.0 °F 23.6 °F 28.4 °F 87% 30.30 in 6.2 mi NNE 10.4 mph - N/A   Partly Cloudy
7:50 PM 32.0 °F 24.2 °F 28.4 °F 87% 30.27 in 6.2 mi NNE 9.2 mph - N/A   Unknown
8:20 PM 32.0 °F 26.4 °F 28.4 °F 87% 30.27 in 6.2 mi NNE 5.8 mph - N/A   Scattered Clouds
8:50 PM 30.2 °F 22.6 °F 28.4 °F 93% 30.27 in 6.2 mi NNE 8.1 mph - N/A   Scattered Clouds
9:20 PM 30.2 °F 20.8 °F 26.6 °F 86% 30.27 in 6.2 mi NE 11.5 mph - N/A   Unknown
9:50 PM 30.2 °F 20.2 °F 26.6 °F 86% 30.27 in - NE 12.7 mph - N/A   Clear
10:20 PM 30.2 °F 19.8 °F 26.6 °F 86% 30.27 in - NE 13.8 mph - N/A   Clear
10:50 PM 30.2 °F 19.3 °F 26.6 °F 86% 30.27 in - NE 15.0 mph - N/A   Clear
11:20 PM 30.2 °F 21.3 °F 26.6 °F 86% 30.27 in - ENE 10.4 mph - N/A   Clear
11:50 PM 30.2 °F 21.3 °F 26.6 °F 86% 30.27 in - NE 10.4 mph - N/A   Clear